[[{"header":{"parameterUnit":"m.s-1","parameterCategory":1,"la1":30.2991,"la2":30.254,"lo1":-89.0895,"lo2":-89.0444,"dy":0.0017,"dx":0.0017,"nx":28,"ny":28,"refTime":"2024-04-05T09:00:00:Z","depth":0,"parameterNumber":2,"parameterNumberName":"U-component_of_WINDS"},"data":[0,0,0,0,0,0,0,0,0,0,0,0,0,0,0,0,0,0,0,0,0,0,0,0,0,0,0,0,0,0,0,0,0,0,0,0,0,0,0,0,0,0,0,0,0,0,0,0,0,0,0,0,0,0,0,0,0,0,2.236,2.236,0,2.243,2.2431,2.2432,2.2469,2.2469,2.2469,2.2469,2.2543,2.2545,2.2547,0,0,0,0,0,0,0,0,0,0,0,0,0,2.2261,2.2263,2.236,2.236,2.2361,2.243,2.2431,2.2432,2.2469,2.2469,2.2469,2.2469,2.2543,2.2545,2.2547,0,0,0,0,0,0,0,0,0,0,0,0,0,2.2315,2.2263,2.2359,2.2388,2.2391,2.243,2.2431,2.2432,2.2469,2.2469,2.2469,2.2469,2.2542,2.2545,2.2548,2.2563,0,0,2.2556,2.2557,0,0,0,0,0,0,0,0,2.2312,2.2319,2.2383,2.2386,2.239,2.2441,2.2423,2.2476,2.2469,2.244,2.2469,2.247,2.2509,2.2515,2.2528,2.2567,2.257,2.2557,2.2558,2.2559,2.256,0,0,0,0,0,0,0,2.2308,2.2316,2.2388,2.2384,2.2388,2.2399,2.2407,2.2434,2.2473,2.2442,2.2445,2.2453,2.2511,2.2525,2.253,2.2571,2.2556,2.2559,2.2561,2.2562,2.2629,2.2629,0,0,0,0,0,0,2.2299,2.2312,2.2385,2.239,2.235,2.2401,2.2409,2.2425,2.2473,2.248,2.2453,2.2454,2.252,2.2526,2.2533,2.2556,2.2559,2.2562,2.2564,2.2629,2.2629,2.2629,0,0,0,0,0,0,2.2297,2.2305,2.2382,2.2352,2.2362,2.2402,2.2419,2.2426,2.244,2.2481,2.2488,2.2459,2.252,2.2529,2.2556,2.2559,2.2563,2.2566,2.2629,2.2629,2.2629,2.2602,0,0,0,0,0,0,2.2294,2.2304,2.231,2.2352,2.2364,2.2403,2.2419,2.2427,2.2444,2.2447,2.2489,2.2496,2.2521,2.2551,2.2559,2.2563,2.2568,2.2629,2.2629,2.2629,2.2602,2.2601,2.2599,0,0,0,0,0,2.229,2.2299,2.231,2.2318,2.2371,2.2403,2.241,2.2438,2.2444,2.2451,2.2478,2.2495,2.2557,2.2554,2.2562,2.2568,2.2629,2.2629,2.2629,2.2603,2.2601,2.2599,0,0,0,0,0,0,2.2256,2.2305,2.2317,2.2339,2.2367,2.2409,2.2418,2.2435,2.2462,2.2463,2.2498,2.2507,2.2532,2.2553,2.2548,2.2587,2.2595,2.2597,2.2572,2.2571,2.2569,2.2564,2.2571,0,0,0,0,0,2.2251,2.2272,2.2314,2.2329,2.2342,2.2378,2.2393,2.2412,2.2443,2.2455,2.2483,2.2513,2.254,2.2556,2.2583,2.2606,2.2617,2.2614,2.2612,2.2611,2.2612,2.2629,2.2628,2.263,2.263,2.263,0,0,2.224,2.227,2.2281,2.2323,2.2347,2.2369,2.2387,2.241,2.2427,2.2458,2.2486,2.2508,2.2544,2.2569,2.2582,2.2588,2.2614,2.2611,2.261,2.2612,2.2629,2.2629,2.2628,2.263,2.263,2.263,0,0,2.2234,2.2257,2.2274,2.2297,2.2333,2.2357,2.2361,2.2402,2.2418,2.2446,2.2471,2.2493,2.2537,2.2562,2.2581,2.2586,2.2604,2.2594,2.2586,2.2602,2.2602,2.2602,2.2606,2.2606,2.2595,2.2595,2.2595,0,2.2216,2.225,2.228,2.2302,2.2321,2.235,2.2368,2.239,2.2433,2.2446,2.2451,2.2509,2.2535,2.2568,2.257,2.2583,2.2591,2.259,2.2599,2.26,2.26,2.2604,2.2605,2.2594,2.2594,2.2594,2.2594,0,2.2228,2.2252,2.2261,2.2302,2.2322,2.2342,2.2376,2.2393,2.2412,2.2436,2.2466,2.2498,2.2533,2.2542,2.256,2.2579,2.2581,2.2592,2.2601,2.2598,2.2603,2.2604,2.2592,2.2593,2.2593,2.2593,0,0,2.22,2.2259,2.2262,2.2282,2.2325,2.2344,2.2367,2.2401,2.2416,2.2445,2.2466,2.2504,2.2515,2.2536,2.2558,2.2571,2.2576,2.2581,2.2583,2.258,2.2602,2.2594,2.2595,2.2588,2.2589,2.2589,2.2599,0,2.22,2.224,2.2269,2.2299,2.2323,2.2352,2.2372,2.2402,2.2425,2.245,2.2476,2.2504,2.2516,2.2529,2.2544,2.2572,2.2581,2.2572,2.261,2.261,2.26,2.2597,2.2588,2.2596,2.2601,2.2601,2.2601,0,2.2205,2.2234,2.2266,2.2309,2.232,2.2337,2.2372,2.2395,2.243,2.2446,2.2471,2.2493,2.252,2.2527,2.2566,2.2559,2.2577,2.2593,2.2594,2.26,2.2606,2.2603,2.2599,2.2601,2.2604,2.2604,2.2604,0,2.2183,2.223,2.2256,2.2272,2.2322,2.2334,2.2356,2.2391,2.2411,2.2442,2.2455,2.2489,2.2508,2.2534,2.2566,2.2568,2.2602,2.2611,2.2618,2.2618,2.2624,2.2624,2.2624,2.2634,2.2634,2.2634,2.2634,0,2.218,2.2199,2.2247,2.2263,2.2287,2.2321,2.2343,2.2367,2.2399,2.2422,2.2449,2.247,2.251,2.2537,2.2562,2.2592,2.26,2.2615,2.2622,2.2613,2.2611,2.2625,2.2626,2.2634,2.2634,2.2634,2.2634,0,2.216,2.2192,2.2223,2.2269,2.2281,2.2296,2.2336,2.2354,2.238,2.2408,2.2417,2.2458,2.2491,2.2526,2.257,2.2587,2.2617,2.2625,2.2604,2.2608,2.2614,2.2614,2.2624,2.2629,2.2634,2.2634,2.2634,0,2.2156,2.2172,2.2219,2.2237,2.2258,2.2285,2.2305,2.234,2.2361,2.2403,2.2417,2.2452,2.2481,2.2533,2.2568,2.2603,2.2613,2.2615,2.2619,2.261,2.2615,2.2614,2.2617,2.2613,2.2613,2.2613,2.2613,0,2.2147,2.2163,2.2191,2.2226,2.2249,2.2278,2.2308,2.2321,2.2362,2.2384,2.2418,2.2442,2.2488,2.2523,2.2563,2.2587,2.2608,2.2611,2.2615,2.2607,2.2595,2.2603,2.2602,2.2611,2.2611,2.2611,2.2611,2.2611,2.2136,2.2152,2.2189,2.222,2.2247,2.2275,2.2294,2.2323,2.2352,2.2392,2.2412,2.2447,2.2484,2.254,2.2563,2.2592,2.2598,2.2603,2.2605,2.2606,2.2604,2.259,2.2599,2.26,2.26,2.26,2.26,0,2.2129,2.2155,2.2183,2.2225,2.225,2.2267,2.2302,2.2323,2.2353,2.2386,2.2415,2.2456,2.2491,2.2529,2.2567,2.2583,2.2593,2.2592,2.2591,2.2597,2.2596,2.259,2.2583,2.2583,2.2583,2.2583,2.2583,2.2583,2.2129,2.2158,2.2179,2.2222,2.2248,2.2282,2.2301,2.2328,2.2355,2.2399,2.2428,2.2453,2.2489,2.253,2.2564,2.2575,2.2588,2.2584,2.2597,2.2595,2.2597,2.2598,2.2592,2.2586,2.2586,2.2596,2.2596,2.2596]},{"header":{"parameterUnit":"m.s-1","parameterCategory":1,"la1":30.2991,"la2":30.254,"lo1":-89.0895,"lo2":-89.0444,"dy":0.0017,"dx":0.0017,"nx":28,"ny":28,"refTime":"2024-04-05T09:00:00:Z","depth":0,"parameterNumber":3,"parameterNumberName":"V-component_of_WINDS"},"data":[0,0,0,0,0,0,0,0,0,0,0,0,0,0,0,0,0,0,0,0,0,0,0,0,0,0,0,0,0,0,0,0,0,0,0,0,0,0,0,0,0,0,0,0,0,0,0,0,0,0,0,0,0,0,0,0,0,0,-1.361,-1.361,0,-1.3635,-1.3635,-1.3635,-1.3707,-1.3709,-1.3711,-1.3712,-1.3735,-1.3734,-1.3734,0,0,0,0,0,0,0,0,0,0,0,0,0,-1.3626,-1.3625,-1.361,-1.361,-1.3611,-1.3635,-1.3635,-1.3635,-1.3707,-1.3709,-1.3711,-1.3713,-1.3735,-1.3734,-1.3733,0,0,0,0,0,0,0,0,0,0,0,0,0,-1.3631,-1.3625,-1.361,-1.3649,-1.3653,-1.3635,-1.3635,-1.3635,-1.3707,-1.3709,-1.3711,-1.3714,-1.3736,-1.3735,-1.3733,-1.3678,0,0,-1.3729,-1.3729,0,0,0,0,0,0,0,0,-1.3631,-1.3631,-1.3643,-1.3647,-1.3651,-1.3671,-1.3649,-1.365,-1.3706,-1.3686,-1.3712,-1.3715,-1.3712,-1.3712,-1.3712,-1.3679,-1.368,-1.3729,-1.3728,-1.3728,-1.3728,0,0,0,0,0,0,0,-1.3631,-1.363,-1.362,-1.3643,-1.3648,-1.3666,-1.367,-1.365,-1.3685,-1.3688,-1.3694,-1.3696,-1.3714,-1.3713,-1.3713,-1.368,-1.3729,-1.3728,-1.3727,-1.3727,-1.3608,-1.3606,0,0,0,0,0,0,-1.3625,-1.3629,-1.3619,-1.3621,-1.3647,-1.3664,-1.3668,-1.3662,-1.3686,-1.3692,-1.3694,-1.3699,-1.3714,-1.3714,-1.3714,-1.3654,-1.3728,-1.3727,-1.3726,-1.3611,-1.3608,-1.3605,0,0,0,0,0,0,-1.3625,-1.3623,-1.3618,-1.3626,-1.3627,-1.3661,-1.3654,-1.3661,-1.366,-1.369,-1.3696,-1.3686,-1.3716,-1.3716,-1.3688,-1.3656,-1.3726,-1.3725,-1.3613,-1.361,-1.3606,-1.3532,0,0,0,0,0,0,-1.3625,-1.3623,-1.3601,-1.3625,-1.3626,-1.3591,-1.3652,-1.366,-1.3658,-1.3665,-1.3684,-1.369,-1.3718,-1.3689,-1.3686,-1.3655,-1.3724,-1.3616,-1.3612,-1.3608,-1.3537,-1.3526,-1.3517,0,0,0,0,0,-1.3625,-1.3578,-1.36,-1.3598,-1.3601,-1.3589,-1.3589,-1.3623,-1.3655,-1.3635,-1.3654,-1.3689,-1.3659,-1.3686,-1.3683,-1.3651,-1.3619,-1.3613,-1.3608,-1.3542,-1.3529,-1.3517,0,0,0,0,0,0,-1.3547,-1.3582,-1.3606,-1.3566,-1.3574,-1.3601,-1.3576,-1.3607,-1.3606,-1.3612,-1.3654,-1.3658,-1.3624,-1.3635,-1.3663,-1.3601,-1.3645,-1.3639,-1.3596,-1.3583,-1.3573,-1.3572,-1.3723,0,0,0,0,0,-1.3526,-1.3513,-1.3544,-1.3505,-1.3508,-1.3541,-1.3537,-1.3563,-1.3573,-1.3576,-1.3594,-1.3602,-1.3595,-1.3589,-1.3584,-1.3539,-1.3546,-1.3516,-1.3506,-1.3497,-1.3492,-1.3473,-1.3461,-1.3588,-1.3588,-1.3588,0,0,-1.348,-1.3498,-1.3487,-1.349,-1.3499,-1.3487,-1.3543,-1.3526,-1.3518,-1.3573,-1.3549,-1.3562,-1.3574,-1.3539,-1.3523,-1.3546,-1.3459,-1.349,-1.3483,-1.3483,-1.3466,-1.3454,-1.3444,-1.3584,-1.3585,-1.3585,0,0,-1.3392,-1.3403,-1.3374,-1.3383,-1.3397,-1.342,-1.3413,-1.3436,-1.3448,-1.3424,-1.3468,-1.3457,-1.3443,-1.3452,-1.3454,-1.3373,-1.3406,-1.337,-1.3316,-1.3297,-1.3287,-1.3279,-1.3253,-1.3243,-1.3364,-1.3364,-1.3364,0,-1.3334,-1.3317,-1.3354,-1.3336,-1.3337,-1.3389,-1.3361,-1.3368,-1.3379,-1.3379,-1.3405,-1.3391,-1.3402,-1.3372,-1.3352,-1.3351,-1.3346,-1.3368,-1.3286,-1.3277,-1.327,-1.3246,-1.3236,-1.3359,-1.336,-1.336,-1.3361,0,-1.3246,-1.3234,-1.3208,-1.3221,-1.3219,-1.3195,-1.3231,-1.3224,-1.3251,-1.3272,-1.3249,-1.3265,-1.3266,-1.326,-1.3284,-1.3233,-1.3247,-1.3278,-1.3323,-1.3253,-1.3232,-1.3222,-1.3353,-1.3355,-1.3356,-1.3357,0,0,-1.3109,-1.3145,-1.3135,-1.3144,-1.3165,-1.3156,-1.3136,-1.3138,-1.3134,-1.314,-1.3126,-1.3115,-1.3145,-1.3148,-1.3174,-1.3157,-1.3096,-1.3191,-1.3192,-1.3175,-1.3045,-1.3023,-1.3012,-1.3118,-1.3116,-1.3115,-1.3045,0,-1.3028,-1.2997,-1.3032,-1.2994,-1.2985,-1.3035,-1.3018,-1.303,-1.3049,-1.3044,-1.3065,-1.3058,-1.3097,-1.3099,-1.3085,-1.3106,-1.3071,-1.3112,-1.3107,-1.3106,-1.3105,-1.3,-1.2976,-1.291,-1.3036,-1.3035,-1.3034,0,-1.2929,-1.2934,-1.2896,-1.2924,-1.2921,-1.2905,-1.2912,-1.2906,-1.2922,-1.2937,-1.2942,-1.2974,-1.2958,-1.3001,-1.2981,-1.3008,-1.3008,-1.3019,-1.3017,-1.302,-1.3067,-1.3002,-1.2889,-1.288,-1.302,-1.3021,-1.3022,0,-1.2837,-1.2834,-1.2812,-1.2816,-1.2847,-1.2835,-1.2847,-1.2865,-1.2866,-1.2872,-1.2873,-1.2876,-1.2879,-1.2881,-1.2915,-1.2942,-1.2891,-1.2936,-1.2906,-1.2905,-1.2894,-1.2894,-1.2781,-1.2889,-1.2889,-1.289,-1.289,0,-1.2745,-1.272,-1.2772,-1.2758,-1.2732,-1.2773,-1.2747,-1.2764,-1.278,-1.2772,-1.2815,-1.2806,-1.2849,-1.2846,-1.2871,-1.2853,-1.2852,-1.2866,-1.2874,-1.2864,-1.2862,-1.2866,-1.2872,-1.2887,-1.2888,-1.2888,-1.2888,0,-1.2638,-1.2671,-1.2651,-1.2683,-1.269,-1.267,-1.2698,-1.2688,-1.2711,-1.27,-1.2699,-1.2735,-1.2734,-1.2767,-1.2771,-1.2788,-1.2759,-1.2774,-1.2755,-1.276,-1.2729,-1.2733,-1.2616,-1.2605,-1.2717,-1.2716,-1.2715,0,-1.2578,-1.2561,-1.2592,-1.259,-1.2601,-1.2597,-1.2599,-1.2639,-1.2639,-1.2657,-1.2645,-1.2647,-1.2651,-1.2646,-1.2673,-1.2677,-1.2694,-1.2653,-1.2695,-1.2687,-1.2697,-1.2699,-1.2699,-1.2644,-1.2643,-1.2642,-1.2641,0,-1.247,-1.2488,-1.2489,-1.2497,-1.2499,-1.2506,-1.2517,-1.2513,-1.2557,-1.2555,-1.2555,-1.2558,-1.2564,-1.2567,-1.2577,-1.259,-1.2623,-1.2627,-1.2621,-1.2612,-1.2603,-1.2611,-1.2734,-1.263,-1.2631,-1.2632,-1.2633,-1.2633,-1.2387,-1.2375,-1.2397,-1.2398,-1.241,-1.242,-1.2413,-1.2437,-1.2437,-1.2446,-1.247,-1.2466,-1.2486,-1.2503,-1.2513,-1.2512,-1.2532,-1.2522,-1.252,-1.2518,-1.2514,-1.2602,-1.2513,-1.2514,-1.2514,-1.2514,-1.2515,0,-1.2283,-1.23,-1.2301,-1.2316,-1.2317,-1.2349,-1.2364,-1.2363,-1.236,-1.2375,-1.2379,-1.2381,-1.2384,-1.2412,-1.2419,-1.2413,-1.2429,-1.2414,-1.2416,-1.2419,-1.2493,-1.2499,-1.2401,-1.2401,-1.2401,-1.2401,-1.2401,-1.2401,-1.223,-1.2214,-1.2235,-1.2226,-1.2243,-1.2241,-1.2247,-1.2257,-1.227,-1.227,-1.2274,-1.2293,-1.2314,-1.2324,-1.2329,-1.2338,-1.2339,-1.232,-1.2333,-1.2402,-1.2413,-1.2424,-1.243,-1.2319,-1.2319,-1.226,-1.2259,-1.2259]}]]